Location: Unspecified
(0.0000°N, 0.0000°E)
Time: 21:53:20
(UTC+00:00)

deb S5M - Pass Details

Date: 24 June 2024
Orbit: 774 x 867 km, 82.5° (Epoch: 17 July)

Event Time Altitude Azimuth Distance (km) Brightness Sun altitude
Exits shadow 02:41:10 11° 84° (E) 2,371 ? -45.0°
Drops below altitude 10° 02:41:53 10° 76° (ENE) 2,434 ? -44.8°
Sets 02:46:18 0° 43° (NE) 3,391 ? -43.9°
